Petersburg, AK

2:29 PM AKST on January 20, 2018 (GMT -0900)
Johnson Petersburg

Weather History for PAPG - August, 2014

Change the Weather History Date:

Thursday, August 28, 2014

  Actual Average Record
Temperature  
Mean Temperature 54 °F -  
Max Temperature 59 °F 57 °F 73 °F (1989)
Min Temperature 50 °F 46 °F 33 °F (1992)
Degree Days  
Heating Degree Days 10    
Growing Degree Days 4 (Base 50)    
Moisture  
Dew Point 50 °F    
Average Humidity 87    
Maximum Humidity 94    
Minimum Humidity 72    
Precipitation  
Precipitation 0.12 in - - ()
Sea Level Pressure  
Sea Level Pressure 29.96 in    
Wind  
Wind Speed 1 mph (NE)    
Max Wind Speed 7 mph    
Max Gust Speed -    
Visibility 6 miles    
Events Fog , Rain    
Averages and records for this station are not official NWS values.
T = Trace of Precipitation, MM = Missing Value Source: NWS Daily Summary

Daily Weather History Graph

Daily Weather History Graph

Search for Another Location

Airport or City:

Trip Planner

Search our weather history database for the weather conditions in past years. The results will help you decide how hot, cold, wet, or windy it might be!

Date:

Astronomy

Aug. 28, 2014 Rise Set
Actual Time 5:46 AM AKDT 7:57 PM AKDT
Civil Twilight 5:05 AM AKDT 8:38 PM AKDT
Nautical Twilight 4:12 AM AKDT 9:31 PM AKDT
Astronomical Twilight 3:07 AM AKDT 10:34 PM AKDT
Moon 9:28 AM AKDT (8/28) 8:38 PM AKDT (8/28)
Length of Visible Light 15h 33m
Length of Day
14h 11m
Waxing Crescent, 9% of the Moon is Illuminated
Aug 28
Waxing Crescent
Sep 2
First Quarter
Sep 8
Full
Sep 15
Last Quarter
Sep 23
New

Hourly Weather History & Observations

Time (AKDT) Temp. Dew Point Humidity Pressure Visibility Wind Dir Wind Speed Gust Speed Precip Events Conditions
12:16 AM 51.8 °F 48.2 °F 88% 30.07 in 0.2 mi Calm Calm - N/A   Overcast
12:56 AM 51.8 °F 48.2 °F 88% 30.07 in 0.8 mi Calm Calm - N/A   Overcast
1:16 AM 51.8 °F 50.0 °F 94% 30.07 in 0.8 mi Calm Calm - N/A   Overcast
1:56 AM 51.8 °F 48.2 °F 88% 30.07 in 10.0 mi Calm Calm - N/A   Overcast
2:16 AM 51.8 °F 48.2 °F 88% 30.07 in 10.0 mi Calm Calm - N/A   Overcast
2:36 AM 51.8 °F 48.2 °F 88% 30.07 in 5.0 mi Calm Calm - N/A   Overcast
2:56 AM 51.8 °F 48.2 °F 88% 30.07 in 1.2 mi Calm Calm - N/A   Overcast
3:36 AM 51.8 °F 48.2 °F 88% 30.06 in 0.5 mi Calm Calm - N/A   Overcast
3:56 AM 51.8 °F 48.2 °F 88% 30.06 in 0.5 mi Calm Calm - N/A   Overcast
4:56 AM 51.8 °F 48.2 °F 88% 30.05 in 0.2 mi Calm Calm - N/A   Overcast
5:56 AM 50.0 °F 48.2 °F 94% 30.04 in 0.2 mi Calm Calm - N/A Fog Fog
6:36 AM 50.0 °F 48.2 °F 94% 30.03 in 0.2 mi Calm Calm - N/A   Overcast
6:56 AM 50.0 °F 48.2 °F 94% 30.03 in 0.2 mi Calm Calm - N/A   Overcast
7:56 AM 50.0 °F 48.2 °F 94% 30.03 in 0.2 mi Calm Calm - N/A Fog Fog
8:36 AM 50.0 °F 48.2 °F 94% 30.02 in 0.2 mi Calm Calm - N/A   Overcast
8:56 AM 51.8 °F 48.2 °F 88% 30.02 in 0.5 mi Calm Calm - N/A Fog Fog
9:16 AM 51.8 °F 48.2 °F 88% 30.02 in 0.5 mi Calm Calm - N/A   Overcast
9:30 AM 51.8 °F 48.2 °F 88% 30.01 in 0.8 mi Calm Calm - N/A   Overcast
9:36 AM 51.8 °F 48.2 °F 88% 30.01 in 0.8 mi Calm Calm - N/A   Overcast
9:56 AM 51.8 °F 50.0 °F 94% 30.01 in 2.0 mi NW 3.5 mph - N/A   Mostly Cloudy
10:28 AM 53.6 °F 51.8 °F 94% 30.00 in 7.0 mi Calm Calm - N/A Fog Patches of Fog
10:36 AM 53.6 °F 51.8 °F 94% 30.00 in 7.0 mi North 3.5 mph - N/A   Mostly Cloudy
10:56 AM 53.6 °F 51.8 °F 94% 30.00 in 7.0 mi ENE 5.8 mph - N/A   Mostly Cloudy
11:16 AM 53.6 °F 51.8 °F 94% 29.99 in 7.0 mi Calm Calm - N/A   Mostly Cloudy
11:36 AM 53.6 °F 50.0 °F 88% 29.99 in 7.0 mi Calm Calm - N/A   Mostly Cloudy
11:56 AM 55.4 °F 50.0 °F 82% 29.98 in 10.0 mi Calm Calm - N/A   Mostly Cloudy
12:56 PM 55.4 °F 50.0 °F 82% 29.97 in 10.0 mi Calm Calm - N/A   Mostly Cloudy
1:36 PM 57.2 °F 51.8 °F 82% 29.96 in 10.0 mi Calm Calm - N/A   Mostly Cloudy
1:56 PM 57.2 °F 50.0 °F 77% 29.95 in 10.0 mi Calm Calm - N/A   Mostly Cloudy
2:16 PM 57.2 °F 51.8 °F 82% 29.94 in 10.0 mi Calm Calm - N/A   Mostly Cloudy
2:36 PM 57.2 °F 50.0 °F 77% 29.93 in 10.0 mi Calm Calm - N/A   Mostly Cloudy
2:56 PM 59.0 °F 51.8 °F 77% 29.93 in 10.0 mi West 3.5 mph - N/A   Mostly Cloudy
3:36 PM 59.0 °F 50.0 °F 72% 29.92 in 10.0 mi Calm Calm - N/A   Mostly Cloudy
3:56 PM 55.4 °F 51.8 °F 88% 29.91 in 10.0 mi Calm Calm - N/A   Overcast
4:16 PM 57.2 °F 53.6 °F 88% 29.90 in 10.0 mi Calm Calm - N/A   Overcast
4:36 PM 55.4 °F 51.8 °F 88% 29.90 in 10.0 mi ENE 3.5 mph - N/A   Overcast
4:56 PM 55.4 °F 51.8 °F 88% 29.89 in 10.0 mi Calm Calm - N/A   Overcast
5:16 PM 57.2 °F 51.8 °F 82% 29.89 in 10.0 mi Calm Calm - 0.01 in   Overcast
5:36 PM 57.2 °F 51.8 °F 82% 29.89 in 10.0 mi Calm Calm - 0.01 in   Overcast
5:56 PM 55.4 °F 50.0 °F 82% 29.89 in 7.0 mi SW 6.9 mph - 0.09 in   Overcast
6:36 PM 53.6 °F 50.0 °F 88% 29.88 in 7.0 mi East 6.9 mph - 0.03 in   Overcast
6:56 PM 53.6 °F 48.2 °F 82% 29.87 in 10.0 mi NNW 3.5 mph - N/A Rain Light Rain
7:56 PM 53.6 °F 50.0 °F 88% 29.85 in 10.0 mi Calm Calm - N/A Rain Light Rain
8:36 PM 53.6 °F 48.2 °F 82% 29.85 in 10.0 mi Calm Calm - N/A   Overcast
8:56 PM 53.6 °F 50.0 °F 88% 29.84 in 10.0 mi Calm Calm - N/A   Overcast
9:36 PM 53.6 °F 50.0 °F 88% 29.83 in 10.0 mi Calm Calm - N/A   Overcast
9:56 PM 53.6 °F 50.0 °F 88% 29.82 in 10.0 mi Calm Calm - N/A Rain Light Rain
10:16 PM 53.6 °F 50.0 °F 88% 29.82 in 10.0 mi East 6.9 mph - N/A   Overcast
10:36 PM 53.6 °F 48.2 °F 82% 29.81 in 10.0 mi East 6.9 mph - N/A   Overcast
11:16 PM 53.6 °F 48.2 °F 82% 29.80 in 10.0 mi Calm Calm - N/A   Overcast
11:36 PM 53.6 °F 48.2 °F 82% 29.80 in 10.0 mi East 4.6 mph - N/A   Overcast